{"data":{"norad_id":63740,"intl_designator":"2025-088S","name":"KUIPER-00027","alt_names":[],"object_type":"PAYLOAD","status":"ACTIVE","operator":null,"country":"US","launch_date":"2025-04-28","launch_site_code":"AFETR","launch_vehicle":null,"mission":null,"orbit_class":"UNKNOWN","rcs_meters":null,"size_class":null,"mass_kg":null,"dimensions":null,"purposes":[],"wikipedia_slug":null,"has_3d_model":false,"image_url":null,"decayed_at":null,"tle_current":{"epoch":"2026-09-21T10:18:21.434400Z","epoch_age_seconds":124215,"freshness":"FRESH","line1":"1 63740U 25088S   26264.42941475  .00000765  00000+0  12931-3 0  9995","line2":"2 63740  51.9027 310.0451 0000374  68.8757 291.2246 14.79931196 76600","mean_motion":14.79931196,"eccentricity":3.74e-5,"inclination_deg":51.9027,"raan_deg":310.0451,"arg_perigee_deg":68.8757,"mean_anomaly_deg":291.2246,"bstar":0.00012931,"rev_number":7660,"period_min":97.301820780052,"perigee_km":629.27923679243,"apogee_km":629.80341113106,"semimajor_km":7007.6783239617,"source":"CELESTRAK","updated_at":"2026-09-22T09:00:29.319925Z"}}}